QFA168 NZCH-YMML

Flight info

Callsign QFA168
Flight time N/A
Altitude 39000
Route KABIN L508 OMKIN P766 MIKEG N759 ANGEX DCT RAZZI
Aircraft A21N/M-SDE2E3FGHIRWXY/LB1

Departure

Time 2026-05-06 10:21
Airport Christchurch International Airport (NZCH)

Arrival

Time N/A
Airport Melbourne Airport (YMML)
Time Latitude Longitude Altitude Speed Heading
2026-05-06 10:14 -43.49214 172.54134 108 ft 0 kts 94°
2026-05-06 10:18 -43.49212 172.54121 108 ft 2 kts 102°
2026-05-06 10:18 -43.49211 172.54105 107 ft 3 kts 67°
2026-05-06 10:18 -43.49218 172.54092 108 ft 3 kts 59°
2026-05-06 10:18 -43.49221 172.54068 109 ft 3 kts 120°
2026-05-06 10:19 -43.49220 172.54064 109 ft 0 kts 133°
2026-05-06 10:19 -43.49226 172.54072 108 ft 3 kts 136°
2026-05-06 10:19 -43.49258 172.54110 108 ft 16 kts 146°
2026-05-06 10:19 -43.49421 172.54100 104 ft 3 kts 234°
2026-05-06 10:20 -43.49424 172.54071 104 ft 5 kts 284°
2026-05-06 10:20 -43.49314 172.53885 110 ft 63 kts 310°
2026-05-06 10:20 -43.48809 172.53069 156 ft 156 kts 313°
2026-05-06 10:20 -43.47951 172.51691 364 ft 208 kts 311°
2026-05-06 10:21 -43.46857 172.50414 1533 ft 218 kts 324°
2026-05-06 10:21 -43.45620 172.48865 2153 ft 260 kts 316°
2026-05-06 10:21 -43.44639 172.46682 3273 ft 279 kts 286°
2026-05-06 10:21 -43.44370 172.44064 5080 ft 269 kts 275°
2026-05-06 10:22 -43.44257 172.41566 7080 ft 255 kts 275°
2026-05-06 10:22 -43.44153 172.39155 8620 ft 258 kts 277°
2026-05-06 10:22 -43.44025 172.36609 9810 ft 274 kts 277°
2026-05-06 10:22 -43.43876 172.33905 10764 ft 296 kts 277°
2026-05-06 10:23 -43.43700 172.30901 11276 ft 333 kts 277°
2026-05-06 10:23 -43.43501 172.27562 11786 ft 365 kts 277°
2026-05-06 10:23 -43.43292 172.24037 12621 ft 382 kts 277°
2026-05-06 10:23 -43.43073 172.20348 13759 ft 390 kts 278°
2026-05-06 10:24 -43.42849 172.16594 14808 ft 396 kts 278°
2026-05-06 10:24 -43.42619 172.12777 15833 ft 401 kts 277°
2026-05-06 10:24 -43.42386 172.08937 16842 ft 406 kts 277°
2026-05-06 10:24 -43.42150 172.05084 17793 ft 411 kts 276°
2026-05-06 10:25 -43.41907 172.01143 18666 ft 416 kts 276°
2026-05-06 10:25 -43.41659 171.97152 19409 ft 420 kts 276°
2026-05-06 10:25 -43.41408 171.93143 20212 ft 423 kts 276°
2026-05-06 10:25 -43.41154 171.89094 20988 ft 425 kts 276°
2026-05-06 10:26 -43.40896 171.85027 21761 ft 428 kts 276°
2026-05-06 10:26 -43.40635 171.80932 22501 ft 430 kts 277°
2026-05-06 10:26 -43.40371 171.76817 23173 ft 433 kts 277°
2026-05-06 10:26 -43.40104 171.72680 23770 ft 436 kts 277°
2026-05-06 10:27 -43.39834 171.68515 24229 ft 438 kts 277°
2026-05-06 10:27 -43.39564 171.64378 24666 ft 441 kts 277°
2026-05-06 10:27 -43.39288 171.60164 25095 ft 443 kts 277°
2026-05-06 10:27 -43.39010 171.55940 25566 ft 444 kts 277°
2026-05-06 10:28 -43.38729 171.51693 26108 ft 444 kts 277°
2026-05-06 10:28 -43.38452 171.47528 26853 ft 439 kts 277°
2026-05-06 10:28 -43.38173 171.43371 27613 ft 434 kts 277°
2026-05-06 10:28 -43.37896 171.39249 28276 ft 431 kts 277°
2026-05-06 10:29 -43.37618 171.35151 28859 ft 430 kts 276°
2026-05-06 10:29 -43.37337 171.31026 29135 ft 435 kts 276°
2026-05-06 10:29 -43.37051 171.26868 29558 ft 437 kts 277°
2026-05-06 10:29 -43.36766 171.22735 29895 ft 441 kts 276°
2026-05-06 10:30 -43.36474 171.18526 30441 ft 440 kts 277°
2026-05-06 10:30 -43.36184 171.14352 30995 ft 436 kts 277°
2026-05-06 10:30 -43.35896 171.10218 31595 ft 432 kts 277°
2026-05-06 10:30 -43.35607 171.06119 32170 ft 428 kts 277°
2026-05-06 10:31 -43.35320 171.02062 32680 ft 426 kts 277°
2026-05-06 10:31 -43.35033 170.98022 33177 ft 423 kts 277°
2026-05-06 10:31 -43.34750 170.94059 33706 ft 420 kts 277°
2026-05-06 10:31 -43.34461 170.90024 34205 ft 418 kts 278°
2026-05-06 10:32 -43.34177 170.86094 34466 ft 419 kts 278°
2026-05-06 10:32 -43.33887 170.82103 34754 ft 420 kts 278°
2026-05-06 10:32 -43.33597 170.78115 35134 ft 418 kts 278°
2026-05-06 10:32 -43.33306 170.74135 35515 ft 417 kts 278°
2026-05-06 10:33 -43.33015 170.70178 35820 ft 416 kts 277°
2026-05-06 10:33 -43.32725 170.66267 36171 ft 414 kts 277°
2026-05-06 10:33 -43.32433 170.62322 36535 ft 412 kts 277°
2026-05-06 10:33 -43.32141 170.58409 36855 ft 412 kts 277°
2026-05-06 10:34 -43.31846 170.54491 37158 ft 412 kts 277°
2026-05-06 10:34 -43.31552 170.50575 37526 ft 410 kts 277°
2026-05-06 10:34 -43.31260 170.46722 37811 ft 410 kts 277°
2026-05-06 10:34 -43.30964 170.42826 38144 ft 410 kts 277°
2026-05-06 10:35 -43.30666 170.38929 38399 ft 410 kts 277°
2026-05-06 10:35 -43.30368 170.35036 38742 ft 409 kts 277°
2026-05-06 10:35 -43.30066 170.31123 38928 ft 411 kts 277°
2026-05-06 10:35 -43.29764 170.27221 39098 ft 411 kts 277°
2026-05-06 10:36 -43.29461 170.23317 39254 ft 411 kts 277°
2026-05-06 10:36 -43.29157 170.19423 39225 ft 410 kts 277°
2026-05-06 10:36 -43.28547 170.11669 39220 ft 408 kts 277°
2026-05-06 10:37 -43.27934 170.03938 39217 ft 406 kts 277°
2026-05-06 10:37 -43.27318 169.96239 39206 ft 405 kts 277°
2026-05-06 10:38 -43.26701 169.88589 39205 ft 405 kts 277°
2026-05-06 10:38 -43.26075 169.80895 39193 ft 405 kts 277°
2026-05-06 10:39 -43.25450 169.73274 39191 ft 402 kts 278°
2026-05-06 10:39 -43.24821 169.65669 39183 ft 400 kts 278°
2026-05-06 10:40 -43.24187 169.58072 39180 ft 400 kts 278°
2026-05-06 10:40 -43.23553 169.50526 39171 ft 400 kts 278°
2026-05-06 10:41 -43.22911 169.42955 39166 ft 400 kts 278°
2026-05-06 10:41 -43.22263 169.35359 39158 ft 399 kts 278°
2026-05-06 10:42 -43.21615 169.27835 39147 ft 399 kts 278°
2026-05-06 10:42 -43.20958 169.20264 39148 ft 399 kts 278°
2026-05-06 10:43 -43.20299 169.12737 39139 ft 399 kts 278°
2026-05-06 10:44 -43.19299 169.01403 39140 ft 399 kts 278°
2026-05-06 10:44 -43.18625 168.93844 39129 ft 399 kts 279°
2026-05-06 10:45 -43.17947 168.86296 39131 ft 399 kts 279°
2026-05-06 10:45 -43.17268 168.78793 39132 ft 399 kts 279°
2026-05-06 10:46 -43.16578 168.71232 39128 ft 399 kts 279°
2026-05-06 10:46 -43.15882 168.63650 39123 ft 402 kts 279°
2026-05-06 10:47 -43.15177 168.56051 39121 ft 404 kts 280°
2026-05-06 10:47 -43.14399 168.48453 39112 ft 404 kts 281°
2026-05-06 10:48 -43.13566 168.40843 39110 ft 404 kts 281°
2026-05-06 10:48 -43.12725 168.33214 39105 ft 404 kts 281°
2026-05-06 10:49 -43.11890 168.25635 39104 ft 407 kts 281°
2026-05-06 10:49 -43.11041 168.17941 39091 ft 409 kts 281°
2026-05-06 10:50 -43.10192 168.10280 39083 ft 409 kts 281°
2026-05-06 10:50 -43.09332 168.02563 39083 ft 409 kts 281°
2026-05-06 10:51 -43.08467 167.94866 39091 ft 409 kts 281°
2026-05-06 10:51 -43.07604 167.87229 39075 ft 407 kts 281°
2026-05-06 10:52 -43.06734 167.79583 39064 ft 406 kts 281°
2026-05-06 10:52 -43.05865 167.71992 39065 ft 406 kts 281°
2026-05-06 10:53 -43.04986 167.64355 39056 ft 406 kts 281°
2026-05-06 10:53 -43.04102 167.56726 39059 ft 406 kts 281°
2026-05-06 10:54 -43.03216 167.49123 39050 ft 407 kts 281°
2026-05-06 10:54 -43.02321 167.41480 39047 ft 407 kts 281°
2026-05-06 10:55 -43.01419 167.33829 39040 ft 407 kts 281°
2026-05-06 10:55 -43.00518 167.26218 39040 ft 407 kts 282°
2026-05-06 10:56 -42.99605 167.18554 39034 ft 406 kts 282°
2026-05-06 10:56 -42.98699 167.10995 39027 ft 405 kts 282°
2026-05-06 10:57 -42.97783 167.03397 39025 ft 404 kts 282°
2026-05-06 10:57 -42.96868 166.95862 39021 ft 404 kts 282°
2026-05-06 10:58 -42.95942 166.88272 39021 ft 404 kts 282°
2026-05-06 10:58 -42.95016 166.80715 39018 ft 403 kts 283°
2026-05-06 10:59 -42.94083 166.73155 39008 ft 403 kts 283°
2026-05-06 10:59 -42.93148 166.65622 39009 ft 402 kts 283°
2026-05-06 11:00 -42.92211 166.58113 39002 ft 402 kts 283°
2026-05-06 11:00 -42.91271 166.50618 38998 ft 402 kts 283°
2026-05-06 11:01 -42.90321 166.43084 38989 ft 402 kts 283°
2026-05-06 11:01 -42.89367 166.35561 38985 ft 402 kts 283°
2026-05-06 11:02 -42.88412 166.28076 38982 ft 402 kts 283°
2026-05-06 11:02 -42.87448 166.20561 38972 ft 402 kts 283°
2026-05-06 11:03 -42.86486 166.13092 38975 ft 402 kts 284°
2026-05-06 11:03 -42.85506 166.05541 38966 ft 406 kts 284°
2026-05-06 11:04 -42.84514 165.97932 38969 ft 407 kts 284°
2026-05-06 11:04 -42.83688 165.91618 38963 ft 407 kts 284°
2026-05-06 11:05 -42.82690 165.84027 38960 ft 407 kts 284°
2026-05-06 11:05 -42.81684 165.76427 38958 ft 407 kts 284°
2026-05-06 11:06 -42.80674 165.68840 38958 ft 410 kts 284°
2026-05-06 11:06 -42.79648 165.61168 38953 ft 411 kts 284°
2026-05-06 11:07 -42.78625 165.53554 38950 ft 411 kts 284°
2026-05-06 11:07 -42.77591 165.45893 38949 ft 411 kts 284°
2026-05-06 11:08 -42.76556 165.38279 38949 ft 411 kts 284°
2026-05-06 11:08 -42.75513 165.30638 38944 ft 411 kts 284°
2026-05-06 11:09 -42.74462 165.22978 38944 ft 411 kts 284°
2026-05-06 11:09 -42.73408 165.15341 38944 ft 411 kts 285°
2026-05-06 11:10 -42.72355 165.07748 38952 ft 411 kts 285°
2026-05-06 11:10 -42.71286 165.00083 38942 ft 413 kts 285°
2026-05-06 11:11 -42.70205 164.92376 38938 ft 414 kts 285°
2026-05-06 11:11 -42.69129 164.84726 38939 ft 414 kts 285°
2026-05-06 11:12 -42.68039 164.77027 38936 ft 414 kts 285°
2026-05-06 11:12 -42.66950 164.69369 38942 ft 414 kts 285°
2026-05-06 11:13 -42.65846 164.61654 38938 ft 416 kts 285°
2026-05-06 11:13 -42.64735 164.53919 38936 ft 416 kts 285°
2026-05-06 11:14 -42.63625 164.46233 38935 ft 416 kts 285°
2026-05-06 11:14 -42.62515 164.38583 38935 ft 416 kts 285°
2026-05-06 11:15 -42.61394 164.30899 38934 ft 417 kts 285°
2026-05-06 11:15 -42.60256 164.23141 38932 ft 418 kts 285°
2026-05-06 11:16 -42.59113 164.15385 38930 ft 419 kts 285°
2026-05-06 11:16 -42.57971 164.07668 38932 ft 419 kts 285°
2026-05-06 11:17 -42.56819 163.99921 38957 ft 418 kts 285°
2026-05-06 11:17 -42.55663 163.92192 38936 ft 420 kts 285°
2026-05-06 11:18 -42.54495 163.84417 38931 ft 420 kts 285°
2026-05-06 11:18 -42.53322 163.76644 38933 ft 420 kts 285°
2026-05-06 11:19 -42.52144 163.68877 38936 ft 420 kts 285°
2026-05-06 11:19 -42.50968 163.61162 38941 ft 421 kts 285°
2026-05-06 11:20 -42.49774 163.53369 38936 ft 421 kts 285°
2026-05-06 11:20 -42.48583 163.45629 38939 ft 421 kts 285°
2026-05-06 11:21 -42.47380 163.37843 38941 ft 421 kts 285°
2026-05-06 11:21 -42.46173 163.30073 38952 ft 421 kts 286°
2026-05-06 11:22 -42.44965 163.22340 38941 ft 422 kts 286°
2026-05-06 11:22 -42.43747 163.14572 38941 ft 421 kts 286°
2026-05-06 11:23 -42.42522 163.06795 38941 ft 421 kts 286°
2026-05-06 11:23 -42.41292 162.99029 38948 ft 422 kts 286°
2026-05-06 11:24 -42.40062 162.91306 38957 ft 422 kts 286°
2026-05-06 11:24 -42.38824 162.83566 38948 ft 422 kts 286°
2026-05-06 11:25 -42.37577 162.75813 38949 ft 422 kts 286°
2026-05-06 11:25 -42.36323 162.68046 38949 ft 422 kts 286°
2026-05-06 11:26 -42.35064 162.60286 38954 ft 422 kts 286°
2026-05-06 11:26 -42.33799 162.52522 38957 ft 423 kts 286°
2026-05-06 11:27 -42.32528 162.44756 38953 ft 423 kts 286°
2026-05-06 11:27 -42.31259 162.37042 38956 ft 423 kts 286°
2026-05-06 11:28 -42.29977 162.29278 38956 ft 423 kts 286°
2026-05-06 11:28 -42.28686 162.21497 38958 ft 423 kts 286°
2026-05-06 11:29 -42.27396 162.13760 38957 ft 424 kts 286°
2026-05-06 11:29 -42.26103 162.06035 38959 ft 424 kts 286°
2026-05-06 11:30 -42.24797 161.98266 38960 ft 423 kts 286°
2026-05-06 11:30 -42.23488 161.90513 38960 ft 423 kts 286°
2026-05-06 11:31 -42.22205 161.82949 38963 ft 423 kts 286°
2026-05-06 11:31 -42.20886 161.75211 38964 ft 424 kts 286°
2026-05-06 11:32 -42.19566 161.67495 38962 ft 424 kts 286°
2026-05-06 11:32 -42.18235 161.59746 38963 ft 423 kts 286°
2026-05-06 11:33 -42.16895 161.51985 38964 ft 424 kts 286°
2026-05-06 11:33 -42.15562 161.44295 38963 ft 424 kts 286°
2026-05-06 11:34 -42.14215 161.36556 38965 ft 424 kts 286°
2026-05-06 11:34 -42.12868 161.28852 38963 ft 424 kts 287°
2026-05-06 11:35 -42.11509 161.21109 38973 ft 424 kts 287°
2026-05-06 11:35 -42.10146 161.13378 38966 ft 424 kts 287°
2026-05-06 11:36 -42.08783 161.05680 38967 ft 424 kts 287°
2026-05-06 11:36 -42.07407 160.97944 38966 ft 424 kts 287°
2026-05-06 11:37 -42.06039 160.90281 38966 ft 424 kts 287°
2026-05-06 11:37 -42.04652 160.82546 38966 ft 423 kts 287°
2026-05-06 11:38 -42.03271 160.74873 38966 ft 423 kts 287°
2026-05-06 11:38 -42.01876 160.67161 38969 ft 424 kts 287°
2026-05-06 11:39 -42.00477 160.59451 38966 ft 424 kts 287°
2026-05-06 11:39 -41.99077 160.51770 38971 ft 423 kts 287°
2026-05-06 11:40 -41.97677 160.44123 38966 ft 423 kts 287°
2026-05-06 11:40 -41.96265 160.36442 38965 ft 423 kts 287°
2026-05-06 11:41 -41.94847 160.28757 38964 ft 423 kts 287°
2026-05-06 11:41 -41.93434 160.21128 38966 ft 423 kts 287°
2026-05-06 11:42 -41.92003 160.13436 38967 ft 422 kts 287°
2026-05-06 11:42 -41.90579 160.05813 38963 ft 422 kts 287°
2026-05-06 11:43 -41.89143 159.98152 38966 ft 422 kts 287°
2026-05-06 11:43 -41.87713 159.90561 38961 ft 422 kts 287°
2026-05-06 11:44 -41.85545 159.79098 38961 ft 422 kts 287°
2026-05-06 11:44 -41.84099 159.71496 38962 ft 422 kts 287°
2026-05-06 11:45 -41.82643 159.63866 38961 ft 422 kts 287°
2026-05-06 11:45 -41.81188 159.56275 38960 ft 422 kts 287°
2026-05-06 11:46 -41.79721 159.48649 38961 ft 421 kts 287°
2026-05-06 11:46 -41.78251 159.41036 38959 ft 421 kts 287°
2026-05-06 11:47 -41.76786 159.33481 38958 ft 421 kts 287°
2026-05-06 11:47 -41.75304 159.25863 38957 ft 421 kts 288°
2026-05-06 11:48 -41.73820 159.18270 38969 ft 421 kts 288°
2026-05-06 11:48 -41.72341 159.10726 38953 ft 421 kts 288°
2026-05-06 11:49 -41.70849 159.03148 38956 ft 420 kts 288°
2026-05-06 11:49 -41.69361 158.95614 38955 ft 420 kts 288°
2026-05-06 11:50 -41.67856 158.88027 38954 ft 420 kts 288°
2026-05-06 11:50 -41.66352 158.80473 38954 ft 420 kts 288°
2026-05-06 11:51 -41.64849 158.72957 38948 ft 420 kts 288°
2026-05-06 11:51 -41.63331 158.65385 38950 ft 420 kts 288°
2026-05-06 11:52 -41.61819 158.57878 38946 ft 420 kts 288°
2026-05-06 11:52 -41.60554 158.51614 38949 ft 420 kts 288°
2026-05-06 11:53 -41.58767 158.42802 38946 ft 420 kts 288°
2026-05-06 11:53 -41.57243 158.35315 38943 ft 420 kts 288°
2026-05-06 11:54 -41.55963 158.29049 38944 ft 420 kts 288°
2026-05-06 11:54 -41.54420 158.21520 38943 ft 420 kts 288°
2026-05-06 11:55 -41.52876 158.14015 38946 ft 419 kts 288°
2026-05-06 11:55 -41.51326 158.06506 38941 ft 419 kts 288°
2026-05-06 11:56 -41.49779 157.99042 38938 ft 419 kts 288°
2026-05-06 11:56 -41.48218 157.91536 38938 ft 419 kts 288°
2026-05-06 11:57 -41.46662 157.84078 38943 ft 419 kts 288°
2026-05-06 11:57 -41.45093 157.76591 38935 ft 419 kts 288°
2026-05-06 11:58 -41.43524 157.69136 38938 ft 419 kts 288°
2026-05-06 11:58 -41.41945 157.61658 38939 ft 419 kts 288°
2026-05-06 11:59 -41.40361 157.54182 38942 ft 419 kts 288°
2026-05-06 11:59 -41.38770 157.46703 38936 ft 419 kts 288°
2026-05-06 12:00 -41.37189 157.39291 38937 ft 418 kts 288°
2026-05-06 12:00 -41.35592 157.31835 38939 ft 418 kts 289°
2026-05-06 12:01 -41.33999 157.24420 38935 ft 418 kts 289°
2026-05-06 12:01 -41.32393 157.16977 38936 ft 418 kts 289°
2026-05-06 12:02 -41.30777 157.09506 38936 ft 418 kts 289°
2026-05-06 12:02 -41.29172 157.02118 38934 ft 418 kts 289°
2026-05-06 12:03 -41.27551 156.94676 38941 ft 418 kts 289°
2026-05-06 12:03 -41.25927 156.87251 38939 ft 418 kts 289°
2026-05-06 12:04 -41.24308 156.79871 38938 ft 418 kts 289°
2026-05-06 12:04 -41.22680 156.72476 38938 ft 418 kts 289°
2026-05-06 12:05 -41.21049 156.65090 38938 ft 418 kts 289°
2026-05-06 12:05 -41.19405 156.57674 38933 ft 418 kts 289°
2026-05-06 12:06 -41.17759 156.50273 38933 ft 417 kts 289°
2026-05-06 12:06 -41.16118 156.42915 38938 ft 417 kts 289°
2026-05-06 12:07 -41.14466 156.35537 38939 ft 417 kts 289°
2026-05-06 12:07 -41.12804 156.28141 38931 ft 417 kts 289°
2026-05-06 12:08 -41.11140 156.20760 38936 ft 417 kts 289°
2026-05-06 12:08 -41.09482 156.13428 38931 ft 416 kts 289°
2026-05-06 12:09 -41.07820 156.06103 38924 ft 416 kts 289°
2026-05-06 12:09 -41.06143 155.98735 38924 ft 416 kts 289°
2026-05-06 12:10 -41.04462 155.91379 38933 ft 416 kts 289°
2026-05-06 12:10 -41.02791 155.84086 38927 ft 416 kts 289°
2026-05-06 12:11 -41.01109 155.76769 38925 ft 415 kts 289°
2026-05-06 12:11 -40.99419 155.69444 38925 ft 415 kts 289°
2026-05-06 12:12 -40.97734 155.62161 38927 ft 415 kts 289°
2026-05-06 12:12 -40.96037 155.54851 38925 ft 414 kts 289°
2026-05-06 12:13 -40.94339 155.47559 38923 ft 414 kts 289°
2026-05-06 12:13 -40.92648 155.40320 38922 ft 414 kts 290°
2026-05-06 12:14 -40.90937 155.33023 38919 ft 414 kts 290°
2026-05-06 12:14 -40.89237 155.25792 38919 ft 414 kts 290°
2026-05-06 12:15 -40.87519 155.18511 38916 ft 414 kts 290°
2026-05-06 12:15 -40.85812 155.11299 38916 ft 414 kts 290°
2026-05-06 12:16 -40.84091 155.04048 38919 ft 414 kts 290°
2026-05-06 12:16 -40.82364 154.96794 38918 ft 413 kts 290°
2026-05-06 12:17 -40.80634 154.89555 38917 ft 413 kts 290°
2026-05-06 12:17 -40.78903 154.82330 38914 ft 412 kts 290°
2026-05-06 12:18 -40.77177 154.75149 38914 ft 412 kts 290°
2026-05-06 12:18 -40.75435 154.67927 38911 ft 412 kts 290°
2026-05-06 12:19 -40.73701 154.60754 38914 ft 411 kts 290°
2026-05-06 12:19 -40.71958 154.53572 38915 ft 411 kts 290°
2026-05-06 12:20 -40.70220 154.46430 38904 ft 410 kts 290°
2026-05-06 12:20 -40.68477 154.39289 38911 ft 411 kts 290°
2026-05-06 12:21 -40.66723 154.32129 38912 ft 410 kts 290°
2026-05-06 12:21 -40.64968 154.24981 38911 ft 409 kts 290°
2026-05-06 12:22 -40.63214 154.17863 38910 ft 408 kts 290°
2026-05-06 12:22 -40.61460 154.10766 38904 ft 408 kts 290°
2026-05-06 12:23 -40.59694 154.03640 38911 ft 408 kts 290°
2026-05-06 12:23 -40.57936 153.96566 38906 ft 408 kts 290°
2026-05-06 12:24 -40.56173 153.89494 38908 ft 408 kts 290°
2026-05-06 12:24 -40.54401 153.82407 38905 ft 408 kts 290°
2026-05-06 12:25 -40.52624 153.75324 38906 ft 407 kts 291°
2026-05-06 12:25 -40.50851 153.68276 38903 ft 407 kts 291°
2026-05-06 12:26 -40.49068 153.61208 38903 ft 406 kts 291°
2026-05-06 12:26 -40.47294 153.54197 38903 ft 406 kts 291°
2026-05-06 12:27 -40.45505 153.47147 38903 ft 406 kts 291°
2026-05-06 12:27 -40.43719 153.40129 38907 ft 405 kts 291°
2026-05-06 12:28 -40.41929 153.33118 38903 ft 405 kts 291°
2026-05-06 12:28 -40.40133 153.26101 38903 ft 405 kts 291°
2026-05-06 12:29 -40.38335 153.19099 38900 ft 404 kts 291°
2026-05-06 12:29 -40.36546 153.12150 38903 ft 404 kts 291°
2026-05-06 12:30 -40.34739 153.05153 38900 ft 404 kts 291°
2026-05-06 12:30 -40.32929 152.98160 38903 ft 404 kts 291°
2026-05-06 12:31 -40.31125 152.91217 38900 ft 404 kts 291°
2026-05-06 12:31 -40.29305 152.84229 38897 ft 404 kts 291°
2026-05-06 12:32 -40.27493 152.77287 38896 ft 404 kts 291°
2026-05-06 12:32 -40.25669 152.70324 38895 ft 404 kts 291°
2026-05-06 12:33 -40.23848 152.63391 38898 ft 404 kts 291°
2026-05-06 12:33 -40.22015 152.56430 38898 ft 403 kts 291°